Hourly Weather Tarliczne

Today, 7 July, Tuesday

Time Temperature Precipitation Wind Pressure Humidity
00:00 +12°C° 0.9 mm 2 mps 706 mmHg 94%
01:00 +12°C° 0.9 mm 2 mps 707 mmHg 96%
02:00 +10°C° 0.4 mm 2 mps 707 mmHg 96%
03:00 +11°C° 0.4 mm 1 mps 707 mmHg 96%
04:00 +11°C° 0.4 mm 1 mps 707 mmHg 96%
05:00 +11°C° 0.3 mm 1 mps 707 mmHg 95%
06:00 +10°C° 0.3 mm 2 mps 708 mmHg 94%
07:00 +12°C° 0.3 mm 2 mps 708 mmHg 93%
08:00 +13°C° 0.3 mm 2 mps 708 mmHg 85%
09:00 +13°C° 0.3 mm 3 mps 709 mmHg 78%
10:00 +14°C° 0.3 mm 3 mps 709 mmHg 70%
11:00 +16°C° 0.1 mm 3 mps 709 mmHg 65%
12:00 +17°C° 0.1 mm 4 mps 709 mmHg 60%
13:00 +18°C° 0.1 mm 4 mps 709 mmHg 54%
14:00 +18°C° 0 mm 4 mps 709 mmHg 54%
15:00 +18°C° 0 mm 3 mps 709 mmHg 54%
16:00 +17°C° 0 mm 3 mps 709 mmHg 54%
17:00 +16°C° 0 mm 2 mps 709 mmHg 61%
18:00 +15°C° 0 mm 2 mps 709 mmHg 68%
19:00 +14°C° 0 mm 1 mps 709 mmHg 75%
20:00 +12°C° 0 mm 1 mps 709 mmHg 79%
21:00 +11°C° 0 mm 1 mps 709 mmHg 83%
22:00 +10°C° 0 mm 1 mps 709 mmHg 87%
23:00 +9°C° 0 mm 1 mps 709 mmHg 87%

Tomorrow, 8 July, Wednesday

Time Temperature Precipitation Wind Pressure Humidity
00:00 +9°C° 0 mm 1 mps 709 mmHg 88%
01:00 +9°C° 0 mm 1 mps 708 mmHg 88%
02:00 +9°C° 0 mm 1 mps 708 mmHg 89%
03:00 +8°C° 0 mm 2 mps 708 mmHg 89%
04:00 +7°C° 0 mm 2 mps 708 mmHg 90%
05:00 +10°C° 0 mm 2 mps 709 mmHg 81%
06:00 +13°C° 0 mm 2 mps 709 mmHg 73%
07:00 +15°C° 0 mm 2 mps 709 mmHg 65%
08:00 +16°C° 0.1 mm 3 mps 709 mmHg 64%
09:00 +17°C° 0.1 mm 3 mps 710 mmHg 63%
10:00 +18°C° 0.1 mm 3 mps 710 mmHg 62%
11:00 +18°C° 0.1 mm 3 mps 710 mmHg 61%
12:00 +19°C° 0.1 mm 3 mps 710 mmHg 60%
13:00 +19°C° 0.1 mm 3 mps 710 mmHg 59%
14:00 +19°C° 0.1 mm 3 mps 709 mmHg 63%
15:00 +19°C° 0.1 mm 2 mps 709 mmHg 66%
16:00 +18°C° 0.1 mm 2 mps 709 mmHg 70%
17:00 +17°C° 0.1 mm 2 mps 709 mmHg 75%
18:00 +18°C° 0.1 mm 1 mps 709 mmHg 79%
19:00 +16°C° 0.1 mm 1 mps 708 mmHg 83%
20:00 +15°C° 0.5 mm 1 mps 709 mmHg 88%
21:00 +14°C° 0.5 mm 1 mps 709 mmHg 92%
22:00 +13°C° 0.5 mm 0 mps 709 mmHg 97%
23:00 +14°C° 0.4 mm 1 mps 709 mmHg 97%

Day after tomorrow, 9 July, Thursday

Time Temperature Precipitation Wind Pressure Humidity
00:00 +14°C° 0.4 mm 1 mps 709 mmHg 97%
01:00 +14°C° 0.4 mm 1 mps 710 mmHg 97%
02:00 +13°C° 0.1 mm 1 mps 710 mmHg 98%
03:00 +13°C° 0.1 mm 1 mps 710 mmHg 98%
04:00 +12°C° 0.1 mm 0 mps 710 mmHg 98%
05:00 +12°C° 0 mm 0 mps 710 mmHg 96%
06:00 +13°C° 0 mm 0 mps 711 mmHg 94%
07:00 +13°C° 0 mm 0 mps 711 mmHg 92%
08:00 +15°C° 0 mm 0 mps 711 mmHg 83%
09:00 +19°C° 0 mm 1 mps 712 mmHg 74%
10:00 +20°C° 0 mm 1 mps 712 mmHg 65%
11:00 +21°C° 0 mm 1 mps 712 mmHg 60%
12:00 +21°C° 0 mm 2 mps 712 mmHg 56%
13:00 +23°C° 0 mm 2 mps 712 mmHg 51%
14:00 +21°C° 0.1 mm 2 mps 712 mmHg 57%
15:00 +21°C° 0.1 mm 2 mps 711 mmHg 62%
16:00 +20°C° 0.1 mm 2 mps 711 mmHg 68%
17:00 +19°C° 0.1 mm 2 mps 711 mmHg 73%
18:00 +19°C° 0.1 mm 1 mps 711 mmHg 79%
19:00 +18°C° 0.1 mm 1 mps 710 mmHg 84%
20:00 +18°C° 0 mm 1 mps 710 mmHg 85%
21:00 +16°C° 0 mm 1 mps 710 mmHg 86%
22:00 +15°C° 0 mm 1 mps 710 mmHg 87%
23:00 +15°C° 0 mm 1 mps 710 mmHg 88%

10 July, Friday

Time Temperature Precipitation Wind Pressure Humidity
00:00 +15°C° 0 mm 1 mps 710 mmHg 88%
01:00 +14°C° 0 mm 1 mps 709 mmHg 89%
02:00 +14°C° 0 mm 1 mps 709 mmHg 89%
03:00 +14°C° 0 mm 2 mps 709 mmHg 90%
04:00 +14°C° 0 mm 2 mps 708 mmHg 90%
05:00 +16°C° 0 mm 2 mps 709 mmHg 84%
06:00 +18°C° 0 mm 2 mps 709 mmHg 78%
07:00 +20°C° 0 mm 3 mps 709 mmHg 72%
08:00 +22°C° 0 mm 3 mps 709 mmHg 66%
09:00 +23°C° 0 mm 4 mps 709 mmHg 59%
10:00 +26°C° 0 mm 5 mps 709 mmHg 52%
11:00 +27°C° 0 mm 5 mps 709 mmHg 50%
12:00 +27°C° 0 mm 5 mps 708 mmHg 48%
13:00 +28°C° 0 mm 5 mps 708 mmHg 46%
14:00 +28°C° 0 mm 5 mps 708 mmHg 48%
15:00 +28°C° 0 mm 5 mps 707 mmHg 50%
16:00 +27°C° 0 mm 5 mps 707 mmHg 52%
17:00 +26°C° 0 mm 4 mps 707 mmHg 60%
18:00 +23°C° 0 mm 4 mps 706 mmHg 68%
19:00 +21°C° 0 mm 3 mps 706 mmHg 76%
20:00 +20°C° 0.7 mm 2 mps 707 mmHg 83%
21:00 +18°C° 0.7 mm 2 mps 707 mmHg 90%
22:00 +16°C° 0.7 mm 1 mps 708 mmHg 97%
23:00 +16°C° 1.8 mm 1 mps 708 mmHg 97%

11 July, Saturday

Time Temperature Precipitation Wind Pressure Humidity
00:00 +16°C° 1.8 mm 1 mps 709 mmHg 98%
01:00 +16°C° 1.8 mm 1 mps 709 mmHg 98%
02:00 +15°C° 0.2 mm 1 mps 709 mmHg 97%
03:00 +14°C° 0.2 mm 2 mps 709 mmHg 97%
04:00 +13°C° 0.2 mm 2 mps 709 mmHg 96%
05:00 +13°C° 0.2 mm 2 mps 710 mmHg 95%
06:00 +12°C° 0.2 mm 1 mps 710 mmHg 94%
07:00 +12°C° 0.2 mm 1 mps 710 mmHg 93%
08:00 +12°C° 0.2 mm 1 mps 710 mmHg 93%
09:00 +12°C° 0.2 mm 1 mps 711 mmHg 93%
10:00 +12°C° 0.2 mm 1 mps 711 mmHg 93%
11:00 +12°C° 0.7 mm 1 mps 711 mmHg 92%
12:00 +13°C° 0.7 mm 1 mps 711 mmHg 90%
13:00 +13°C° 0.7 mm 1 mps 711 mmHg 89%
14:00 +14°C° 0.2 mm 1 mps 711 mmHg 80%
15:00 +15°C° 0.2 mm 1 mps 711 mmHg 71%
16:00 +16°C° 0.2 mm 1 mps 711 mmHg 62%
17:00 +15°C° 0 mm 1 mps 711 mmHg 66%
18:00 +14°C° 0 mm 1 mps 711 mmHg 71%
19:00 +12°C° 0 mm 0 mps 711 mmHg 75%
20:00 +11°C° 0 mm 0 mps 711 mmHg 76%
21:00 +10°C° 0 mm 0 mps 711 mmHg 78%
22:00 +9°C° 0 mm 0 mps 711 mmHg 80%
23:00 +9°C° 0 mm 0 mps 711 mmHg 81%

12 July, Sunday

Time Temperature Precipitation Wind Pressure Humidity
00:00 +9°C° 0 mm 0 mps 711 mmHg 82%
01:00 +10°C° 0 mm 1 mps 711 mmHg 83%
02:00 +9°C° 0 mm 1 mps 711 mmHg 85%
03:00 +8°C° 0 mm 0 mps 712 mmHg 88%
04:00 +7°C° 0 mm 0 mps 712 mmHg 90%
05:00 +10°C° 0 mm 0 mps 712 mmHg 83%
06:00 +12°C° 0 mm 0 mps 713 mmHg 75%
07:00 +14°C° 0 mm 0 mps 713 mmHg 67%
08:00 +16°C° 0.1 mm 1 mps 713 mmHg 64%
09:00 +18°C° 0.1 mm 1 mps 714 mmHg 61%
10:00 +18°C° 0.1 mm 2 mps 714 mmHg 57%
11:00 +18°C° 0.2 mm 2 mps 714 mmHg 56%
12:00 +19°C° 0.2 mm 2 mps 714 mmHg 54%
13:00 +19°C° 0.2 mm 2 mps 714 mmHg 52%
14:00 +19°C° 0.2 mm 3 mps 714 mmHg 56%
15:00 +18°C° 0.2 mm 3 mps 714 mmHg 60%
16:00 +18°C° 0.2 mm 3 mps 714 mmHg 64%
17:00 +16°C° 0.1 mm 2 mps 714 mmHg 71%
18:00 +15°C° 0.1 mm 2 mps 713 mmHg 78%
19:00 +14°C° 0.1 mm 1 mps 713 mmHg 86%
20:00 +13°C° 0 mm 1 mps 713 mmHg 87%
21:00 +11°C° 0 mm 1 mps 714 mmHg 88%
22:00 +10°C° 0 mm 1 mps 714 mmHg 89%
23:00 +10°C° 0 mm 1 mps 714 mmHg 90%
Show more